This is the latest recevied weather packets stored in our database for station/object K9RJT. If no packets are shown the sender has not sent any weather packets the latest 10 day(s).
| Time | Temp. | Humidity | Pressure | Rain* | Wind** | Luminosity | Snow |
|---|---|---|---|---|---|---|---|
| 1777393832 | 8.89° C | 53% | 1016.5 hPa | 0 mm | - | 420 W/m² | - |
| 1777393530 | 8.33° C | 54% | 1016.5 hPa | 0 mm | - | 442 W/m² | - |
| 1777393226 | 8.33° C | 54% | 1016.6 hPa | 0 mm | - | 421 W/m² | - |
| 1777392924 | 8.33° C | 54% | 1016.4 hPa | 0 mm | - | 414 W/m² | - |
| 1777392624 | 7.78° C | 56% | 1016.4 hPa | 0 mm | - | 400 W/m² | - |
| 1777392321 | 8.33° C | 56% | 1016.6 hPa | 0 mm | - | 391 W/m² | - |
| 1777392015 | 7.22° C | 57% | 1016.4 hPa | 0 mm | - | 377 W/m² | - |
| 1777391711 | 7.22° C | 58% | 1016.9 hPa | 0 mm | - | 362 W/m² | - |
| 1777391408 | 7.78° C | 58% | 1016.5 hPa | 0 mm | - | 350 W/m² | - |
| 1777391104 | 7.22° C | 59% | 1016.6 hPa | 0 mm | - | 337 W/m² | - |
| 1777390800 | 6.67° C | 57% | 1016.7 hPa | 0 mm | - | 326 W/m² | - |
| 1777390496 | 6.67° C | 58% | 1016.9 hPa | 0 mm | - | 313 W/m² | - |
| 1777390193 | 6.11° C | 59% | 1016.6 hPa | 0 mm | - | 298 W/m² | - |
| 1777389890 | 6.11° C | 60% | 1016.7 hPa | 0 mm | - | 285 W/m² | - |
| 1777389586 | 5.56° C | 61% | 1016.7 hPa | 0 mm | - | 273 W/m² | - |
| 1777389283 | 4.44° C | 64% | 1016.9 hPa | 0 mm | - | 260 W/m² | - |
| 1777388981 | 4.44° C | 66% | 1016.7 hPa | 0 mm | - | 244 W/m² | - |
| 1777388678 | 3.33° C | 67% | 1016.7 hPa | 0 mm | - | 231 W/m² | - |
| 1777388374 | 2.78° C | 69% | 1016.7 hPa | 0 mm | - | 218 W/m² | - |
| 1777388074 | 2.78° C | 69% | 1016.9 hPa | 0 mm | - | 207 W/m² | - |
| 1777387770 | 2.78° C | 69% | 1017 hPa | 0 mm | - | 194 W/m² | - |
| 1777387467 | 2.22° C | 70% | 1016.9 hPa | 0 mm | - | 180 W/m² | - |
| 1777387161 | 1.67° C | 73% | 1016.6 hPa | 0 mm | - | 166 W/m² | - |
| 1777386857 | 1.11° C | 75% | 1016.7 hPa | 0 mm | - | 153 W/m² | - |
| 1777386554 | 1.11° C | 75% | 1016.5 hPa | 0 mm | - | 141 W/m² | - |
* Rain latest hour (hover to see other rain measurements)
** Current wind speed in m/s (hover to see current wind gust speed)